Hourly Weather Roundup
Issued by NWS Central Illinois

Home | Current Version | Previous Version | Graphics & Text | Print | Product List | Glossary On
Versions: 1 2 3 4 5 6 7 8 9 10 11 12 13 14 15 16 17 18 19 20 21 22 23 24 25 26 27 28 29 30 31 32 33 34 35 36 37 38 39 40 41 42 43 44 45 46 47 48 49 50
000
NZUS43 KILX 291410
HWRILX

AREA WEATHER ROUNDUP
NATIONAL WEATHER SERVICE, LINCOLN IL
900 AM CDT SUN MAR 29 2015


CITY           SKY/WX    TMP DP  RH WIND       PRES   REMARKS
BLOOMINGTON    PTSUNNY   36  23  59 S25G32    30.11F WCI  24
CHAMPAIGN      MOSUNNY   35  23  61 S18       30.17F WCI  24
DECATUR        PTSUNNY   37  22  54 S23G30    30.14F WCI  26
EFFINGHAM      SUNNY     37  17  43 SE12G18   30.23S WCI  30
FLORA          SUNNY     37  24  60 S14G22    30.23F WCI  28
GALESBURG      LGT SNOW  33  27  79 S21G26    29.99F WCI  21
JACKSONVILLE   SUNNY     39  22  49 S22G31    30.09F WCI  29
LACON          PTSUNNY   35  19  51 S14       30.06F WCI  26
LAWRENCEVILLE  SUNNY     36  23  59 S17G26    30.25F WCI  26
LITCHFIELD     MOSUNNY   35  21  56 S21G28    30.15F WCI  24
$$


CITY           SKY/WX    TMP DP  RH WIND       PRES   REMARKS
LINCOLN        PTSUNNY   37  23  58 S16G23    30.14S WCI  27
MACOMB         RAIN      34  28  77 S14       30.08R WCI  25
MATTOON        SUNNY     36  21  54 S14G23    30.19F WCI  27
MT CARMEL AP   SUNNY     37  23  56 S15G23    30.24F WCI  28
OLNEY-NOBLE AP SUNNY     36  23  60 SE14G21   30.23F WCI  27
PARIS          SUNNY     35  24  64 S17       30.22F WCI  25
PEORIA         PTSUNNY   37  21  52 S21G29    30.07F WCI  26
PONTIAC        MOSUNNY   36  23  60 S22       30.13F WCI  24
RANTOUL        MOSUNNY   36  26  67 S18       30.16F WCI  25
ROBINSON       SUNNY     36  23  59 S17G23    30.25F WCI  25
SPRINGFIELD    MOSUNNY   39  21  48 S20G32    30.13F WCI  29
TAYLORVILLE    PTSUNNY   36  21  55 S20G28    30.16F WCI  25
$$

...REGIONAL REPORTS...


CITY           SKY/WX    TMP DP  RH WIND       PRES   REMARKS
CHICAGO O`HARE CLOUDY    34  16  47 S21G29    30.06F WCI  22
KANKAKEE       PTSUNNY   36  22  58 S17G25    30.14F WCI  26
MOLINE         LGT RAIN  34  27  75 S18G33    29.93F WCI  23
MOUNT VERNON   SUNNY     37  21  52 S13       30.24S WCI  29
PITTSFIELD     PTSUNNY   39  26  58 S17       30.07F WCI  30
QUINCY         LGT RAIN  37  26  64 S17       30.03F WCI  27
ROCKFORD       CLOUDY    34  20  56 S24       30.02F WCI  21
$$


CITY           SKY/WX    TMP DP  RH WIND       PRES   REMARKS
BURLINGTON     MIX PCPN  34  29  82 S20       29.99F WCI  23
CEDAR RAPIDS   CLOUDY    33  30  88 S14G22    29.86S WCI  23
DES MOINES     CLOUDY    43  37  79 SW17      29.88F
KIRKSVILLE     CLOUDY    38  33  82 S17G30    29.96F WCI  28
OTTUMWA        LGT RAIN  36  32  85 S18G26    29.93R WCI  26
ST LOUIS       PTSUNNY   41  19  41 S14       30.14F WCI  33
$$


CITY           SKY/WX    TMP DP  RH WIND       PRES   REMARKS
TERRE HAUTE    SUNNY     36  20  52 S14       30.24F WCI  27
EVANSVILLE     SUNNY     39  19  44 S14       30.29F WCI  31
INDIANAPOLIS   PTSUNNY   34  17  50 S12       30.25S WCI  25
LAFAYETTE      SUNNY     34  17  50 S13G20    30.22S WCI  25
MADISON        FRZ RAIN  34  22  61 S24G30    29.88F WCI  21
MILWAUKEE      CLOUDY    36  15  42 S18G32    30.01F WCI  26
$$





USA.gov is the U.S. government's official web portal to all federal, state and local government web resources and services.